Eureka, NV

4:07 AM PST on February 25, 2017 (GMT -0800)
Eureka

Weather History for KP68 - March, 2014

Change the Weather History Date:

Monday, March 31, 2014

  Actual Average Record
Temperature  
Mean Temperature 34 °F 40 °F  
Max Temperature 47 °F 54 °F 75 °F (2015)
Min Temperature 20 °F 25 °F 10 °F (1999)
Degree Days  
Heating Degree Days 31 25  
Month to date heating degree days 778 873  
Since 1 July heating degree days 5582 6156  
Cooling Degree Days 0 0  
Month to date cooling degree days 0 0  
Year to date cooling degree days 0 0  
Moisture  
Dew Point 25 °F    
Average Humidity 69    
Maximum Humidity 92    
Minimum Humidity 45    
Precipitation  
Precipitation 0.00 in 0.04 in 0.27 in (2010)
Month to date precipitation 0.60 0.93  
Year to date precipitation 2.34 2.53  
Sea Level Pressure  
Sea Level Pressure 29.82 in    
Wind  
Wind Speed 6 mph (ESE)    
Max Wind Speed 20 mph    
Max Gust Speed 24 mph    
T = Trace of Precipitation, MM = Missing Value Source: NWS Daily Summary

Daily Weather History Graph

Daily Weather History Graph

Search for Another Location

Airport or City:

Trip Planner

Search our weather history database for the weather conditions in past years. The results will help you decide how hot, cold, wet, or windy it might be!

Date:

Astronomy

Mar. 31, 2014 Rise Set
Actual Time 6:29 AM PDT 7:06 PM PDT
Civil Twilight 6:02 AM PDT 7:34 PM PDT
Nautical Twilight 5:30 AM PDT 8:06 PM PDT
Astronomical Twilight 4:57 AM PDT 8:39 PM PDT
Moon 6:56 AM PDT (3/31) 8:30 PM PDT (3/31)
Length of Visible Light 13h 31m
Length of Day
12h 37m
New Moon, 1% of the Moon is Illuminated
Mar 31
New Moon
Apr 7
First Quarter
Apr 15
Full
Apr 22
Last Quarter
Apr 28
New

Hourly Weather History & Observations

Time (PDT) Temp. Windchill Dew Point Humidity Pressure Visibility Wind Dir Wind Speed Gust Speed Precip Events Conditions
12:53 AM 26.1 °F 21.9 °F 21.9 °F 84% 30.02 in - ESE 3.5 mph - N/A   Unknown
1:53 AM 26.1 °F 21.9 °F 21.9 °F 84% 30.00 in - SE 3.5 mph - N/A   Unknown
2:53 AM 27.0 °F 20.5 °F 21.9 °F 81% 29.98 in - South 5.8 mph - N/A   Unknown
3:53 AM 26.1 °F 19.4 °F 19.9 °F 78% 29.96 in - SSE 5.8 mph - N/A   Unknown
4:53 AM 23.0 °F - 18.0 °F 81% 29.95 in - Calm Calm - N/A   Unknown
5:53 AM 21.9 °F - 19.0 °F 89% 29.94 in - Calm Calm - N/A   Unknown
6:53 AM 21.0 °F - 18.0 °F 88% 29.98 in - Calm Calm - N/A   Unknown
7:53 AM 26.1 °F - 21.9 °F 84% 29.96 in - Calm Calm - N/A   Unknown
8:53 AM 30.0 °F 26.5 °F 21.9 °F 72% 29.94 in - NNE 3.5 mph - N/A   Unknown
9:53 AM 33.1 °F 28.7 °F 24.1 °F 70% 29.93 in - NE 4.6 mph - N/A   Unknown
10:53 AM 36.0 °F 30.3 °F 26.1 °F 67% 29.90 in - NNE 6.9 mph - N/A   Unknown
11:43 AM 41.0 °F 33.9 °F 24.1 °F 51% 29.88 in - ESE 12.7 mph - N/A   Unknown
11:53 AM 41.0 °F 33.5 °F 23.0 °F 49% 29.85 in - ESE 13.8 mph - N/A   Unknown
12:53 PM 42.1 °F 35.2 °F 24.1 °F 49% 29.82 in - SE 12.7 mph - N/A   Unknown
1:53 PM 43.0 °F 36.8 °F 26.1 °F 51% 29.80 in - SSE 11.5 mph - N/A   Unknown
2:53 PM 44.1 °F 39.5 °F 25.0 °F 47% 29.75 in - East 8.1 mph - N/A   Unknown
3:53 PM 44.1 °F 37.1 °F 27.0 °F 51% 29.75 in - South 15.0 mph - N/A   Unknown
4:53 PM 45.0 °F 42.6 °F 26.1 °F 48% 29.72 in - South 4.6 mph - N/A   Unknown
5:53 PM 43.0 °F 38.2 °F 27.0 °F 53% 29.70 in - SE 8.1 mph - N/A   Unknown
6:53 PM 43.0 °F 38.2 °F 26.1 °F 51% 29.68 in - NE 8.1 mph - N/A   Unknown
7:53 PM 39.0 °F 32.8 °F 30.0 °F 70% 29.65 in - North 9.2 mph - N/A   Unknown
8:53 PM 37.0 °F 31.0 °F 30.0 °F 76% 29.63 in - North 8.1 mph - N/A   Unknown
9:53 PM 37.0 °F 34.5 °F 30.9 °F 79% 29.62 in - NE 3.5 mph - N/A   Unknown
10:53 PM 37.0 °F 33.3 °F 30.0 °F 76% 29.60 in - ESE 4.6 mph - N/A   Unknown
11:53 PM 36.0 °F 32.1 °F 30.0 °F 79% 29.56 in - NW 4.6 mph - N/A   Unknown